Location: Acequia del Cap
(41.7000°N, 0.6167°E)
Time: 16:25:05
(UTC+00:00)

Cosmos 990 Rocket - Pass Details

Date: 07 August 2020
Orbit: 747 x 768 km, 74.0° (Epoch: 23 September)

Event Time Altitude Azimuth Distance (km) Brightness Sun altitude
Exits shadow 02:23:31 49° 163° (SSE) 972 4.2 -23.6°
Maximum altitude 02:24:43 65° 106° (ESE) 832 4.2 -23.4°
Drops below altitude 10° 02:29:51 10° 26° (NNE) 2,287 7.5 -22.8°
Sets 02:32:14 0° 23° (NNE) 3,212 8.5 -22.6°
